Hagerstown, MD

8:10 PM EDT on March 28, 2017 (GMT -0400)
Hagerstown Regional-Henson

Weather History for KHGR - March, 2014

Change the Weather History Date:

Wednesday, March 26, 2014

  Actual Average Record
Temperature  
Mean Temperature 29 °F 45 °F  
Max Temperature 34 °F 55 °F 75 °F (2004)
Min Temperature 23 °F 36 °F 21 °F (2001)
Degree Days  
Heating Degree Days 36 20  
Month to date heating degree days 761 634  
Since 1 July heating degree days 4776 4537  
Cooling Degree Days 0 0  
Month to date cooling degree days 0 0  
Year to date cooling degree days 0 0  
Moisture  
Dew Point 14 °F    
Average Humidity 63    
Maximum Humidity 96    
Minimum Humidity 29    
Precipitation  
Precipitation 0.00 in 0.14 in 0.61 in (2002)
Month to date precipitation 0.71 2.69  
Year to date precipitation 4.49 7.92  
Sea Level Pressure  
Sea Level Pressure 30.08 in    
Wind  
Wind Speed 19 mph (NW)    
Max Wind Speed 32 mph    
Max Gust Speed 40 mph    
Visibility 7 miles    
Events Fog    
T = Trace of Precipitation, MM = Missing Value Source: NWS Daily Summary

Daily Weather History Graph

Daily Weather History Graph

Search for Another Location

Airport or City:

Trip Planner

Search our weather history database for the weather conditions in past years. The results will help you decide how hot, cold, wet, or windy it might be!

Date:

Astronomy

Mar. 26, 2014 Rise Set
Actual Time 7:04 AM EDT 7:29 PM EDT
Civil Twilight 6:37 AM EDT 7:56 PM EDT
Nautical Twilight 6:06 AM EDT 8:27 PM EDT
Astronomical Twilight 5:33 AM EDT 9:00 PM EDT
Moon 4:11 AM EDT (3/26) 3:05 PM EDT (3/26)
Length of Visible Light 13h 18m
Length of Day
12h 24m
Waning Crescent, 22% of the Moon is Illuminated
Mar 26
Waning Crescent
Mar 30
New
Apr 7
First Quarter
Apr 15
Full
Apr 22
Last Quarter

Hourly Weather History & Observations

Time (EDT) Temp. Windchill Dew Point Humidity Pressure Visibility Wind Dir Wind Speed Gust Speed Precip Events Conditions
12:04 AM 26.1 °F - 25.0 °F 96% 29.89 in 0.8 mi Calm Calm - N/A   Clear
12:14 AM 26.1 °F - 24.1 °F 92% 29.89 in 0.5 mi Calm Calm - N/A Fog Light Freezing Fog
12:26 AM 26.1 °F - 24.1 °F 92% 29.89 in 0.2 mi Calm Calm - N/A Fog Light Freezing Fog
12:43 AM 26.1 °F - 25.0 °F 96% 29.89 in 0.5 mi Calm Calm - N/A Fog Light Freezing Fog
12:53 AM 26.1 °F 21.9 °F 24.1 °F 92% 29.95 in 0.2 mi WNW 3.5 mph - N/A Fog Light Freezing Fog
1:11 AM 26.1 °F - 25.0 °F 96% 29.90 in 0.8 mi Calm Calm - N/A   Mist
1:23 AM 25.0 °F - 23.0 °F 92% 29.90 in 0.2 mi Calm Calm - N/A Fog Light Freezing Fog
1:39 AM 23.0 °F 17.0 °F 21.9 °F 96% 29.91 in 0.2 mi NW 4.6 mph - N/A Fog Light Freezing Fog
1:53 AM 23.0 °F - 21.9 °F 96% 29.97 in 0.2 mi Calm Calm - N/A Fog Light Freezing Fog
2:04 AM 24.1 °F 18.2 °F 21.9 °F 91% 29.91 in 0.2 mi NW 4.6 mph - N/A Fog Light Freezing Fog
2:10 AM 25.0 °F 18.1 °F 23.0 °F 92% 29.91 in 1.0 mi NW 5.8 mph - N/A   Overcast
2:13 AM 24.1 °F 16.0 °F 23.0 °F 96% 29.91 in 3.0 mi NW 6.9 mph - N/A   Overcast
2:53 AM 25.0 °F 12.2 °F 19.9 °F 81% 29.97 in 10.0 mi NW 16.1 mph - N/A   Scattered Clouds
3:53 AM 25.0 °F 10.6 °F 15.1 °F 66% 29.97 in 10.0 mi NW 20.7 mph 25.3 mph N/A   Clear
4:53 AM 26.1 °F 14.0 °F 12.9 °F 58% 30.00 in 10.0 mi NNW 15.0 mph - N/A   Clear
5:53 AM 25.0 °F 12.2 °F 12.9 °F 60% 30.02 in 10.0 mi NW 16.1 mph - N/A   Clear
6:53 AM 24.1 °F 13.7 °F 12.0 °F 60% 30.05 in 10.0 mi NW 10.4 mph - N/A   Clear
7:53 AM 25.0 °F 11.7 °F 12.0 °F 58% 30.09 in 10.0 mi NNW 17.3 mph 25.3 mph N/A   Clear
8:53 AM 26.1 °F 11.6 °F 10.9 °F 53% 30.13 in 10.0 mi NNW 21.9 mph 25.3 mph N/A   Partly Cloudy
9:53 AM 25.0 °F 9.9 °F 8.1 °F 49% 30.17 in 10.0 mi NNW 23.0 mph 36.8 mph N/A   Partly Cloudy
10:53 AM 26.1 °F 11.0 °F 8.1 °F 47% 30.19 in 10.0 mi NW 24.2 mph 33.4 mph N/A   Partly Cloudy
11:53 AM 27.0 °F 11.3 °F 7.0 °F 43% 30.19 in 10.0 mi NW 27.6 mph 35.7 mph N/A   Clear
12:53 PM 28.9 °F 14.0 °F 7.0 °F 40% 30.19 in 10.0 mi WNW 27.6 mph 33.4 mph N/A   Clear
1:53 PM 30.0 °F 17.5 °F 7.0 °F 38% 30.20 in 10.0 mi NW 19.6 mph 31.1 mph N/A   Clear
2:53 PM 30.9 °F 17.8 °F 6.1 °F 35% 30.19 in 10.0 mi WNW 23.0 mph 32.2 mph N/A   Clear
3:53 PM 32.0 °F 18.9 °F 6.1 °F 34% 30.18 in 10.0 mi NW 24.2 mph 33.4 mph N/A   Clear
4:53 PM 33.1 °F 20.3 °F 5.0 °F 31% 30.20 in 10.0 mi NW 24.2 mph 32.2 mph N/A   Clear
5:53 PM 32.0 °F 20.8 °F 5.0 °F 32% 30.22 in 10.0 mi NW 17.3 mph - N/A   Clear
6:53 PM 30.9 °F 18.7 °F 6.1 °F 35% 30.24 in 10.0 mi WNW 19.6 mph - N/A   Clear
7:53 PM 28.0 °F 17.5 °F 7.0 °F 41% 30.28 in 10.0 mi WNW 12.7 mph - N/A   Clear
8:53 PM 27.0 °F 15.6 °F 7.0 °F 43% 30.31 in 10.0 mi WNW 13.8 mph - N/A   Clear
9:53 PM 26.1 °F 15.0 °F 7.0 °F 44% 30.33 in 10.0 mi WNW 12.7 mph - N/A   Clear
10:53 PM 25.0 °F 19.3 °F 6.1 °F 45% 30.34 in 10.0 mi NNW 4.6 mph - N/A   Clear
11:53 PM 26.1 °F - 5.0 °F 41% 30.36 in 10.0 mi Calm Calm - N/A   Clear